TimeMDT,TemperatureF,Dew PointF,Humidity,Sea Level PressureIn,VisibilityMPH,Wind Direction,Wind SpeedMPH,Gust SpeedMPH,PrecipitationIn,Events,Conditions,WindDirDegrees,DateUTC
12:53 AM,55.0,50.0,83,29.85,10.0,North,4.6,-,N/A,,Clear,360,2013-07-07 06:53:00
1:53 AM,53.1,48.9,86,29.87,10.0,NW,4.6,-,N/A,,Clear,310,2013-07-07 07:53:00
2:53 AM,53.1,48.9,86,29.85,10.0,Calm,Calm,-,N/A,,Clear,0,2013-07-07 08:53:00
3:53 AM,52.0,48.0,86,29.86,10.0,NNW,3.5,-,N/A,,Clear,330,2013-07-07 09:53:00
4:53 AM,52.0,46.9,83,29.88,10.0,North,3.5,-,N/A,,Clear,360,2013-07-07 10:53:00
5:53 AM,50.0,46.9,89,29.90,10.0,North,5.8,-,N/A,,Clear,10,2013-07-07 11:53:00
6:53 AM,52.0,48.0,86,29.92,10.0,North,4.6,-,N/A,,Clear,350,2013-07-07 12:53:00
7:53 AM,59.0,53.1,81,29.91,10.0,Calm,Calm,-,N/A,,Clear,0,2013-07-07 13:53:00
8:53 AM,64.9,54.0,68,29.90,10.0,NNW,5.8,-,N/A,,Clear,340,2013-07-07 14:53:00
9:53 AM,70.0,57.0,63,29.90,10.0,NNW,8.1,-,N/A,,Clear,340,2013-07-07 15:53:00
10:53 AM,75.0,55.9,51,29.88,10.0,NNW,4.6,-,N/A,,Clear,340,2013-07-07 16:53:00
11:53 AM,78.1,55.0,45,29.88,10.0,West,4.6,-,N/A,,Clear,270,2013-07-07 17:53:00
12:53 PM,84.9,52.0,32,29.87,10.0,WSW,8.1,-,N/A,,Clear,240,2013-07-07 18:53:00
1:53 PM,86.0,52.0,31,29.84,10.0,WSW,9.2,-,N/A,,Clear,240,2013-07-07 19:53:00
2:53 PM,90.0,51.1,26,29.82,10.0,SW,13.8,19.6,N/A,,Scattered Clouds,230,2013-07-07 20:53:00
3:53 PM,90.0,50.0,25,29.79,10.0,SSW,12.7,19.6,N/A,,Scattered Clouds,210,2013-07-07 21:53:00
4:53 PM,91.9,43.0,18,29.76,10.0,SSW,18.4,-,N/A,,Scattered Clouds,210,2013-07-07 22:53:00
5:53 PM,87.8,46.4,24,29.78,10.0,South,16.1,21.9,N/A,Thunderstorm,Thunderstorm,170,2013-07-07 23:53:00
6:28 PM,84.2,46.4,27,29.91,10.0,South,16.1,-,N/A,,Mostly Cloudy,180,2013-07-08 00:28:00
6:53 PM,82.9,43.0,24,29.79,10.0,South,19.6,27.6,N/A,,Mostly Cloudy,180,2013-07-08 00:53:00
7:53 PM,79.0,42.1,27,29.81,10.0,SSE,20.7,28.8,N/A,,Clear,160,2013-07-08 01:53:00
8:53 PM,77.0,43.0,30,29.82,10.0,SSE,16.1,-,N/A,,Clear,160,2013-07-08 02:53:00
9:53 PM,73.0,45.0,37,29.83,10.0,Variable,5.8,19.6,N/A,,Clear,0,2013-07-08 03:53:00
10:53 PM,62.1,50.0,65,29.87,10.0,Calm,Calm,-,N/A,,Clear,0,2013-07-08 04:53:00
11:53 PM,57.9,51.1,78,29.89,10.0,Calm,Calm,-,N/A,,Clear,0,2013-07-08 05:53:00